[[{"header":{"parameterUnit":"m.s-1","parameterCategory":1,"la1":30.2991,"la2":30.254,"lo1":-89.0895,"lo2":-89.0444,"dy":0.0017,"dx":0.0017,"nx":28,"ny":28,"refTime":"2024-12-15T03:00:00:Z","depth":0,"parameterNumber":2,"parameterNumberName":"U-component_of_WINDS"},"data":[0,0,0,0,0,0,0,0,0,0,0,0,0,0,0,0,0,0,0,0,0,0,0,0,0,0,0,0,0,0,0,0,0,0,0,0,0,0,0,0,0,0,0,0,0,0,0,0,0,0,0,0,0,0,0,0,0,0,-3.7208,-3.7207,0,-3.7145,-3.7144,-3.7143,-3.7003,-3.7,-3.6997,-3.6994,-3.6934,-3.6935,-3.6936,0,0,0,0,0,0,0,0,0,0,0,0,0,-3.7212,-3.7213,-3.7208,-3.7207,-3.7206,-3.7145,-3.7144,-3.7143,-3.7003,-3.7,-3.6996,-3.6993,-3.6934,-3.6935,-3.6937,0,0,0,0,0,0,0,0,0,0,0,0,0,-3.7186,-3.7213,-3.7208,-3.7129,-3.7121,-3.7145,-3.7144,-3.7143,-3.7004,-3.7,-3.6995,-3.6991,-3.6934,-3.6935,-3.6937,-3.7034,0,0,-3.6942,-3.6942,0,0,0,0,0,0,0,0,-3.7188,-3.7186,-3.7141,-3.7135,-3.7126,-3.7077,-3.7123,-3.7107,-3.7005,-3.7049,-3.6994,-3.6989,-3.6986,-3.6983,-3.6981,-3.7031,-3.7028,-3.6942,-3.6943,-3.6944,-3.6944,0,0,0,0,0,0,0,-3.719,-3.7188,-3.7183,-3.7141,-3.7132,-3.7098,-3.709,-3.712,-3.7043,-3.7045,-3.7034,-3.7028,-3.6981,-3.6979,-3.6978,-3.7027,-3.6942,-3.6943,-3.6944,-3.6945,-3.7156,-3.716,0,0,0,0,0,0,-3.7202,-3.7191,-3.7185,-3.7181,-3.7147,-3.7102,-3.7092,-3.7097,-3.7042,-3.7029,-3.7032,-3.7022,-3.6979,-3.6976,-3.6976,-3.7086,-3.6944,-3.6945,-3.6946,-3.7151,-3.7157,-3.7162,0,0,0,0,0,0,-3.7203,-3.7203,-3.7188,-3.7183,-3.7178,-3.7106,-3.7113,-3.7098,-3.7097,-3.7032,-3.7018,-3.7045,-3.6975,-3.6973,-3.702,-3.7082,-3.6946,-3.6947,-3.7146,-3.7153,-3.7159,-3.7308,0,0,0,0,0,0,-3.7204,-3.7204,-3.7239,-3.7185,-3.7179,-3.7232,-3.7117,-3.71,-3.7099,-3.7086,-3.704,-3.7029,-3.6972,-3.7019,-3.7022,-3.7082,-3.6949,-3.714,-3.7149,-3.7157,-3.7297,-3.7319,-3.7338,0,0,0,0,0,-3.7204,-3.7284,-3.7242,-3.7242,-3.7221,-3.7236,-3.7233,-3.7164,-3.7105,-3.714,-3.7099,-3.703,-3.7075,-3.7025,-3.7027,-3.7089,-3.7136,-3.7147,-3.7157,-3.7288,-3.7315,-3.7338,0,0,0,0,0,0,-3.7349,-3.7276,-3.7227,-3.7292,-3.7271,-3.7212,-3.7254,-3.7195,-3.7192,-3.7179,-3.7095,-3.7086,-3.7146,-3.7121,-3.7067,-3.718,-3.7094,-3.7106,-3.7194,-3.7218,-3.7238,-3.7243,-3.695,0,0,0,0,0,-3.7388,-3.7405,-3.734,-3.7404,-3.7396,-3.7328,-3.7331,-3.728,-3.7256,-3.7247,-3.7209,-3.719,-3.7199,-3.7208,-3.7213,-3.7293,-3.7282,-3.7337,-3.7357,-3.7374,-3.7385,-3.7428,-3.7452,-3.7196,-3.7196,-3.7196,0,0,-3.7469,-3.7431,-3.7447,-3.7432,-3.7409,-3.7431,-3.7321,-3.7348,-3.7363,-3.7251,-3.7293,-3.7266,-3.7238,-3.7303,-3.733,-3.7285,-3.7454,-3.7388,-3.7402,-3.7403,-3.7441,-3.7465,-3.7487,-3.7203,-3.7202,-3.7201,0,0,-3.7628,-3.7601,-3.7651,-3.7631,-3.7599,-3.7553,-3.7566,-3.7516,-3.7493,-3.7533,-3.745,-3.7469,-3.7486,-3.7471,-3.7465,-3.7621,-3.7558,-3.7625,-3.7731,-3.7773,-3.7794,-3.7811,-3.7868,-3.7889,-3.7636,-3.7636,-3.7637,0,-3.7734,-3.7761,-3.7684,-3.7716,-3.7713,-3.7612,-3.7663,-3.7648,-3.762,-3.7621,-3.7571,-3.7592,-3.7567,-3.7627,-3.7665,-3.7664,-3.7677,-3.763,-3.7797,-3.7813,-3.7829,-3.7881,-3.7903,-3.7645,-3.7644,-3.7643,-3.7642,0,-3.7893,-3.7913,-3.7957,-3.7932,-3.7933,-3.7975,-3.7907,-3.7918,-3.7867,-3.7828,-3.7871,-3.7837,-3.7835,-3.7845,-3.7796,-3.7899,-3.7873,-3.7811,-3.7723,-3.7863,-3.7911,-3.7931,-3.7657,-3.7654,-3.7651,-3.7649,0,0,-3.814,-3.8072,-3.809,-3.8078,-3.8035,-3.805,-3.8089,-3.8084,-3.8096,-3.8081,-3.8112,-3.813,-3.8073,-3.8067,-3.8016,-3.8053,-3.818,-3.7987,-3.7985,-3.8025,-3.8293,-3.834,-3.8364,-3.8138,-3.8141,-3.8144,-3.8295,0,-3.829,-3.8349,-3.8282,-3.8356,-3.8375,-3.828,-3.8314,-3.8293,-3.8257,-3.8269,-3.823,-3.8245,-3.8168,-3.8164,-3.8197,-3.8158,-3.8233,-3.8146,-3.8167,-3.8169,-3.8177,-3.8389,-3.8439,-3.8583,-3.8314,-3.8317,-3.8319,0,-3.8471,-3.8464,-3.854,-3.8494,-3.8499,-3.853,-3.8522,-3.8534,-3.8509,-3.8481,-3.8475,-3.8413,-3.8449,-3.8364,-3.8413,-3.8356,-3.8361,-3.8344,-3.8347,-3.8347,-3.8253,-3.8396,-3.8627,-3.8649,-3.8348,-3.8346,-3.8344,0,-3.8645,-3.8654,-3.8701,-3.8693,-3.864,-3.8665,-3.8644,-3.8615,-3.8617,-3.8611,-3.8612,-3.8611,-3.861,-3.8612,-3.8552,-3.8495,-3.861,-3.8519,-3.8589,-3.8591,-3.8617,-3.8616,-3.8854,-3.8621,-3.862,-3.862,-3.8619,0,-3.8819,-3.887,-3.8778,-3.8807,-3.8861,-3.8785,-3.8842,-3.8812,-3.8787,-3.881,-3.8729,-3.8752,-3.8672,-3.8687,-3.8641,-3.869,-3.8691,-3.867,-3.8657,-3.8677,-3.868,-3.868,-3.8669,-3.8625,-3.8624,-3.8623,-3.8622,0,-3.9022,-3.8963,-3.9008,-3.8954,-3.8942,-3.8985,-3.894,-3.8966,-3.8925,-3.8955,-3.8958,-3.8895,-3.891,-3.885,-3.8855,-3.8824,-3.8897,-3.8868,-3.8906,-3.8897,-3.897,-3.8964,-3.9216,-3.9245,-3.8993,-3.8996,-3.8998,0,-3.9137,-3.9173,-3.9124,-3.9133,-3.9117,-3.9132,-3.9134,-3.9061,-3.9067,-3.9042,-3.9072,-3.9079,-3.9081,-3.9109,-3.9065,-3.9069,-3.9039,-3.9127,-3.9039,-3.9059,-3.9041,-3.904,-3.9044,-3.9145,-3.9148,-3.9151,-3.9153,0,-3.9348,-3.9317,-3.9322,-3.9318,-3.9322,-3.9315,-3.9303,-3.9316,-3.9238,-3.9249,-3.9262,-3.9264,-3.9268,-3.9277,-3.9272,-3.9253,-3.9191,-3.9181,-3.9197,-3.9219,-3.9239,-3.923,-3.8956,-3.9175,-3.9173,-3.9172,-3.917,-3.9169,-3.951,-3.9539,-3.9509,-3.9518,-3.9501,-3.9492,-3.9514,-3.9476,-3.9485,-3.9482,-3.944,-3.9462,-3.9438,-3.9424,-3.9411,-3.9428,-3.9387,-3.9411,-3.9417,-3.9424,-3.9437,-3.9237,-3.9427,-3.9426,-3.9426,-3.9425,-3.9425,0,-3.9717,-3.9693,-3.9702,-3.9688,-3.9696,-3.9635,-3.962,-3.9631,-3.965,-3.9633,-3.9636,-3.9653,-3.9662,-3.9619,-3.9622,-3.9645,-3.9617,-3.9648,-3.9646,-3.9643,-3.9473,-3.9459,-3.9671,-3.9671,-3.9671,-3.9671,-3.9671,-3.9671,-3.9826,-3.9871,-3.9837,-3.9874,-3.985,-3.987,-3.9866,-3.9858,-3.9844,-3.9865,-3.9872,-3.9843,-3.9816,-3.9817,-3.9824,-3.9811,-3.9816,-3.9858,-3.9836,-3.9679,-3.9655,-3.9632,-3.9618,-3.986,-3.986,-4.0004,-4.0005,-4.0006]},{"header":{"parameterUnit":"m.s-1","parameterCategory":1,"la1":30.2991,"la2":30.254,"lo1":-89.0895,"lo2":-89.0444,"dy":0.0017,"dx":0.0017,"nx":28,"ny":28,"refTime":"2024-12-15T03:00:00:Z","depth":0,"parameterNumber":3,"parameterNumberName":"V-component_of_WINDS"},"data":[0,0,0,0,0,0,0,0,0,0,0,0,0,0,0,0,0,0,0,0,0,0,0,0,0,0,0,0,0,0,0,0,0,0,0,0,0,0,0,0,0,0,0,0,0,0,0,0,0,0,0,0,0,0,0,0,0,0,-0.901,-0.9011,0,-0.9056,-0.9056,-0.9057,-0.9045,-0.9044,-0.9044,-0.9043,-0.9089,-0.9091,-0.9093,0,0,0,0,0,0,0,0,0,0,0,0,0,-0.8913,-0.8914,-0.901,-0.9011,-0.9011,-0.9056,-0.9056,-0.9057,-0.9046,-0.9044,-0.9043,-0.9042,-0.9089,-0.9091,-0.9094,0,0,0,0,0,0,0,0,0,0,0,0,0,-0.8956,-0.8915,-0.901,-0.9011,-0.9012,-0.9055,-0.9056,-0.9057,-0.9046,-0.9044,-0.9043,-0.9042,-0.9088,-0.9091,-0.9094,-0.914,0,0,-0.9103,-0.9105,0,0,0,0,0,0,0,0,-0.8954,-0.896,-0.901,-0.9011,-0.9012,-0.9043,-0.9039,-0.9085,-0.9046,-0.9033,-0.9043,-0.9041,-0.9075,-0.9079,-0.9091,-0.9142,-0.9144,-0.9104,-0.9106,-0.9107,-0.9108,0,0,0,0,0,0,0,-0.8951,-0.8958,-0.9028,-0.9011,-0.9012,-0.9009,-0.9013,-0.9047,-0.9061,-0.9034,-0.9033,-0.9039,-0.9075,-0.9088,-0.9092,-0.9144,-0.9104,-0.9106,-0.9108,-0.9109,-0.9233,-0.9234,0,0,0,0,0,0,-0.8947,-0.8955,-0.9027,-0.903,-0.8979,-0.9012,-0.9017,-0.9035,-0.9061,-0.9063,-0.904,-0.9038,-0.9083,-0.9088,-0.9093,-0.9147,-0.9107,-0.911,-0.9112,-0.9231,-0.9233,-0.9235,0,0,0,0,0,0,-0.8945,-0.8954,-0.9025,-0.8992,-0.9001,-0.9015,-0.9035,-0.9036,-0.9049,-0.9065,-0.9067,-0.905,-0.9082,-0.9089,-0.9128,-0.9149,-0.9111,-0.9114,-0.923,-0.9232,-0.9234,-0.9256,0,0,0,0,0,0,-0.8942,-0.8953,-0.8971,-0.8993,-0.9003,-0.9059,-0.9036,-0.9038,-0.9054,-0.9052,-0.9075,-0.9078,-0.9082,-0.9123,-0.9131,-0.9152,-0.9116,-0.9228,-0.9231,-0.9233,-0.9253,-0.9259,-0.9263,0,0,0,0,0,-0.8939,-0.8976,-0.8972,-0.8981,-0.9026,-0.9061,-0.9066,-0.907,-0.9056,-0.9074,-0.9084,-0.9077,-0.9145,-0.9127,-0.9136,-0.9158,-0.9227,-0.923,-0.9233,-0.9251,-0.9258,-0.9263,0,0,0,0,0,0,-0.8957,-0.8979,-0.8975,-0.902,-0.9038,-0.9059,-0.9081,-0.9077,-0.91,-0.9097,-0.91,-0.9106,-0.9145,-0.9155,-0.9135,-0.9203,-0.9184,-0.9189,-0.9195,-0.9201,-0.9205,-0.9202,-0.9119,0,0,0,0,0,-0.8967,-0.8993,-0.9011,-0.9049,-0.9058,-0.9068,-0.9083,-0.9084,-0.9103,-0.9111,-0.9124,-0.9143,-0.9168,-0.9185,-0.9209,-0.9254,-0.9259,-0.9274,-0.9279,-0.9283,-0.9287,-0.931,-0.9317,-0.9245,-0.9245,-0.9245,0,0,-0.8986,-0.9001,-0.9018,-0.9053,-0.9067,-0.9094,-0.9075,-0.9105,-0.9124,-0.9116,-0.9153,-0.9163,-0.9184,-0.9225,-0.9244,-0.9235,-0.9308,-0.9287,-0.929,-0.9292,-0.9314,-0.9321,-0.9327,-0.9247,-0.9247,-0.9247,0,0,-0.9036,-0.905,-0.9083,-0.9097,-0.9118,-0.9124,-0.9132,-0.9152,-0.9158,-0.9195,-0.9189,-0.9212,-0.9256,-0.9271,-0.9284,-0.9336,-0.933,-0.9343,-0.9369,-0.9391,-0.9397,-0.9402,-0.9419,-0.9426,-0.9348,-0.9348,-0.9348,0,-0.9057,-0.9098,-0.91,-0.913,-0.9144,-0.9137,-0.9169,-0.9183,-0.9212,-0.9222,-0.9211,-0.9264,-0.9278,-0.9322,-0.9335,-0.9346,-0.9354,-0.9341,-0.9396,-0.9401,-0.9405,-0.9422,-0.9429,-0.9349,-0.9349,-0.9349,-0.9349,0,-0.9123,-0.9151,-0.9174,-0.9201,-0.9218,-0.9249,-0.9255,-0.9273,-0.9271,-0.9278,-0.9315,-0.933,-0.9357,-0.9367,-0.9367,-0.9411,-0.9405,-0.9395,-0.9376,-0.9414,-0.9429,-0.9436,-0.9351,-0.9351,-0.935,-0.935,0,0,-0.9187,-0.9212,-0.9221,-0.9232,-0.9254,-0.9276,-0.9305,-0.9331,-0.9345,-0.9364,-0.9388,-0.9424,-0.9415,-0.9429,-0.943,-0.945,-0.9488,-0.9437,-0.9438,-0.9446,-0.9536,-0.9543,-0.9551,-0.9484,-0.9486,-0.9487,-0.9534,0,-0.9238,-0.929,-0.9292,-0.9339,-0.9364,-0.9356,-0.9382,-0.9398,-0.9404,-0.9426,-0.9433,-0.9458,-0.9444,-0.9452,-0.9471,-0.948,-0.9507,-0.9476,-0.9507,-0.9508,-0.9502,-0.9559,-0.9568,-0.9612,-0.9541,-0.9542,-0.9542,0,-0.9304,-0.9324,-0.9374,-0.9391,-0.9401,-0.9424,-0.9446,-0.9467,-0.9484,-0.9487,-0.9503,-0.95,-0.9529,-0.9509,-0.9548,-0.9528,-0.954,-0.9546,-0.9547,-0.9551,-0.9528,-0.9564,-0.9626,-0.9633,-0.9552,-0.9552,-0.9551,0,-0.9345,-0.9385,-0.9419,-0.9429,-0.9449,-0.9465,-0.9474,-0.949,-0.9504,-0.9523,-0.9532,-0.9555,-0.9567,-0.9584,-0.9587,-0.9572,-0.9627,-0.9607,-0.963,-0.963,-0.9642,-0.9641,-0.9707,-0.965,-0.965,-0.965,-0.965,0,-0.9402,-0.9432,-0.9437,-0.9459,-0.9492,-0.9493,-0.9526,-0.9534,-0.9547,-0.9569,-0.9563,-0.9584,-0.9587,-0.9608,-0.961,-0.9642,-0.9648,-0.9651,-0.9651,-0.9651,-0.9651,-0.966,-0.9656,-0.9652,-0.9651,-0.9651,-0.9651,0,-0.9453,-0.9458,-0.9495,-0.951,-0.9514,-0.9538,-0.9551,-0.9571,-0.9576,-0.9603,-0.961,-0.9618,-0.9642,-0.9646,-0.9675,-0.9677,-0.9714,-0.9712,-0.9709,-0.9708,-0.9731,-0.9728,-0.9805,-0.9814,-0.9751,-0.9752,-0.9752,0,-0.9489,-0.9512,-0.9529,-0.9543,-0.9553,-0.9576,-0.959,-0.9591,-0.9606,-0.9625,-0.9643,-0.9666,-0.9685,-0.9724,-0.9732,-0.9753,-0.9751,-0.9776,-0.9754,-0.9753,-0.9751,-0.9749,-0.9751,-0.978,-0.9781,-0.9782,-0.9782,0,-0.9552,-0.9552,-0.9573,-0.9594,-0.9611,-0.9627,-0.9643,-0.9655,-0.9658,-0.9674,-0.9699,-0.9713,-0.9742,-0.9765,-0.9786,-0.9794,-0.9789,-0.9789,-0.9795,-0.9796,-0.9793,-0.9794,-0.972,-0.9787,-0.9787,-0.9786,-0.9786,-0.9786,-0.9596,-0.9616,-0.963,-0.9653,-0.9664,-0.9679,-0.9697,-0.9704,-0.9724,-0.9747,-0.9746,-0.9773,-0.9787,-0.9814,-0.9824,-0.9844,-0.9836,-0.9846,-0.9848,-0.985,-0.9852,-0.9789,-0.9848,-0.9848,-0.9848,-0.9848,-0.9848,0,-0.9658,-0.9666,-0.9687,-0.9709,-0.9726,-0.9718,-0.9734,-0.9749,-0.9772,-0.9786,-0.9804,-0.9831,-0.9853,-0.9862,-0.9883,-0.9897,-0.9895,-0.9902,-0.9901,-0.9903,-0.9858,-0.985,-0.9904,-0.9904,-0.9904,-0.9904,-0.9904,-0.9904,-0.9692,-0.9724,-0.9726,-0.9763,-0.9771,-0.9797,-0.9807,-0.9819,-0.983,-0.986,-0.9878,-0.9883,-0.9894,-0.9916,-0.9935,-0.9937,-0.9945,-0.9953,-0.9954,-0.9912,-0.9907,-0.9901,-0.9894,-0.9955,-0.9955,-0.9997,-0.9998,-0.9998]}]]